Tracking 18796 objects as of 20-September-2017
HD Live streaming from Space Station
objects crossing your sky now

USA 8

Track USA 8 now!
USA 8 is classified as:


NORAD ID: 15543
Int'l Code: 1985-010B
Perigee: 35,337.1 km
Apogee: 36,504.8 km
Inclination: 17.5 °
Period: 1,442.6 minutes
Semi major axis: 42291 km
RCS: Unknown
Launch date: January 24, 1985
Source: United States (US)
Launch site: AIR FORCE EASTERN TEST RANGE (AFETR)
aabbcc
Your satellite tracking list
Your tracking list is empty





NASA's NSSDC Master Catalog

Two Line Element Set (TLE):
1 15543U 85010B   17228.66895118 0.00000000  00000-0  00000-0 0    09
2 15543  17.5190 348.1241 0138051 324.3671  34.7309  0.99819631    02
Source of the keplerian elements: McCants